Regional Weather Roundup
Issued by NWS

Home | Current Version | Previous Version | Text Only | Print | Product List | Glossary On
Versions: 1 2 3 4 5 6 7 8 9 10 11 12 13 14 15 16 17 18 19 20 21 22 23 24 25 26 27 28 29 30 31 32 33 34 35 36 37 38 39 40 41 42 43 44 45 46 47 48 49 50
898
ASUS44 KLIX 241713
RWRLA
LOUISIANA WEATHER ROUNDUP
NATIONAL WEATHER SERVICE NEW ORLEANS LA
1200 PM CDT WED MAY 24 2017

NOTE: "FAIR" INDICATES FEW OR NO CLOUDS BELOW 12,000 FEET WITH NO
      SIGNIFICANT WEATHER AND/OR OBSTRUCTIONS TO VISIBILITY.
      SKY/WX - SKY CONDITION AND SIGNIFICANT WEATHER.
      TMP - AIR TEMPERATURE.    DP   - DEWPOINT TEMPERATURE.
      RH  - RELATIVE HUMIDITY.  PRES - PRESSURE.
      HX  - HEAT INDEX.         WCI  - WIND CHILL INDEX.

*  THESE STATIONS ARE NOT NWS OR FAA STATIONS AND ARE NOT UNDER
   NWS QUALITY CONTROL.

LAZ040-048-061>063-065-066-069-241800-
SOUTHEAST LOUISIANA

CITY           SKY/WX    TMP DP  RH WIND       PRES   REMARKS
N.O. INTL ARPT FAIR      73  53  49 NW14G22   29.72F
N.O. LAKEFRONT FAIR      73  56  54 W15       29.72S
N.O. DOWNTOWN*   N/A     74  52  46 VRB7G16     N/A
RESERVE*       FAIR      76  53  44 NW9       29.73S
SLIDELL        FAIR      73  51  46 VRB7G21   29.70S
BATON ROUGE    PTSUNNY   72  54  53 W10G24    29.73F
BOOTHVILLE     FAIR      73  56  54 NW14      29.71F
BELLE CHASSE   FAIR      75  72  88 NW10G17   29.71F
BOGALUSA*      PTSUNNY   73  53  48 NW10G20   29.72S
GALLIANO*      FAIR      75  51  42 W16G22    29.73S
NEW ROADS*     FAIR      72  54  54 NW15G21   29.74S
GONZALES*      FAIR      74  54  49 NW12G20   29.73F
HAMMOND*       PTSUNNY   75  50  41 NW14      29.71F
HOUMA*         MOSUNNY   73  54  49 NW18      29.74F
PORT FOURCHON* SUNNY     73  55  53 NW16G23   29.73S

$$

LAZ041-044-053-054-241800-
SOUTHWEST LOUISIANA

CITY           SKY/WX    TMP DP  RH WIND       PRES   REMARKS
LAKE CHARLES   FAIR      76  52  43 NW13      29.78F
LAFAYETTE      FAIR      74  55  51 NW17G25   29.76S
PATTERSON      FAIR      75  57  53 NW13      29.76S
SALT POINT       N/A     73  55  53 NW9G20    29.75S
NEW IBERIA     LGT RAIN  74  51  44 NW21      29.77S
CHENAULT AIRPK SUNNY     75  54  46 NW16      29.79S

$$

LAZ027-028-241800-
CENTRAL LOUISIANA

CITY           SKY/WX    TMP DP  RH WIND       PRES   REMARKS
FORT POLK      FAIR      72  49  44 W13G25    29.77S
ALEXANDRIA INT FAIR      72  50  45 NW21G28   29.73F
ALEXANDRIA     FAIR      72  52  49 NW9G26    29.73F

$$

LAZ001-002-241800-
NORTHWEST LOUISIANA

CITY           SKY/WX    TMP DP  RH WIND       PRES   REMARKS
SHREVEPORT     FAIR      70  49  47 NW23G29   29.76F
BARKSDALE AFB  FAIR      69  48  47 NW20G28   29.76S
DTN SHREVEPORT FAIR      69  49  48 NW16G26   29.77S

$$

LAZ014-016-241800-
NORTHEAST LOUISIANA

CITY           SKY/WX    TMP DP  RH WIND       PRES   REMARKS
MONROE         PTSUNNY   69  50  50 W18       29.70F
TALLULAH       FAIR      70  51  51 NW12G21   29.68S

$$





USA.gov is the U.S. government's official web portal to all federal, state and local government web resources and services.